Location: Cicognara
(44.9500°N, 10.4667°E)
Time: 06:53:10
(UTC+00:00)

SL-4 R/B - Pass Details

Date: 20 June 2021
Orbit: 428 x 662 km, 51.6° (Epoch: 28 July)

Event Time Altitude Azimuth Distance (km) Brightness Sun altitude
Rises 23:33:35 0° 274° (W) 2,674 5.5 -21.5°
Reaches altitude 10° 23:36:03 10° 284° (WNW) 1,740 4.7 -21.5°
Maximum altitude 23:39:36 32° 349° (N) 865 3.6 -21.5°
Drops below altitude 10° 23:42:56 10° 54° (NE) 1,627 4.9 -21.4°
Sets 23:45:10 0° 65° (ENE) 2,471 5.8 -21.4°
